User: anonymous   Login
Location: Caltech
(34.1382°N, 118.1253°W)
Time: 08:12:06
(UTC-07:00)
Language:

KITSAT 1 - Orbit

View from above orbital plane
View from above orbital plane
View from above satellite
View from above satellite

Ground track
Ground track

The orbit data is extracted from the following two-line orbital elements,

1 22077U 92052B   17086.52239209 -.00000021 +00000-0 +16289-3 0  9993
2 22077 066.0834 137.6164 0004754 344.0806 125.8293 12.86517712156518
Epoch (UTC): 27 March 2017 12:32:14
Eccentricity: 0.0004754
inclination: 66.0834°
perigee height: 1312 km
apogee height: 1319 km
right ascension of ascending node: 137.6164°
argument of perigee: 344.0806°
revolutions per day: 12.86517712
mean anomaly at epoch: 125.8293°
orbit number at epoch: 15651

The dashed part of the orbit path shows where the satellite is in the earth's shadow,  

DLR